Voltar ao catálogo

STARLINK-2050

AtivoComunicaçõesVLEO
NORAD 47357·PAYLOAD·🇺🇸 United States

Lançado Jan 20, 2021 de Cape Canaveral Space Force Station

Loading…

Próximas Passagens (próximas 24 horas)

TLE

AtualizadoSource: CelesTrak SupGP

Época: Sep 14, 2026, 22:05 UTC

1 47357C 21005J   26257.92062500  .00044852  00000+0  14430-2 0  2573
2 47357  53.1580 262.2452 0001176 102.0945  48.3767 15.31665248    16

Acompanhe STARLINK-2050 em tempo real com AllMySat

Download on the App Store